Time,TemperatureF,DewpointF,PressureIn,WindDirection,WindDirectionDegrees,WindSpeedMPH,WindSpeedGustMPH,Humidity,HourlyPrecipIn,Conditions,Clouds,dailyrainin,SoftwareType,DateUTC
2013-04-24 00:01:00,55.0,55.0,29.85,West,270,3.0,8.0,100,0.00,,,0.69,,2013-04-24 04:01:00,
2013-04-24 00:03:00,49.0,49.0,29.85,SW,225,4.0,10.0,100,0.00,,,0.76,,2013-04-24 04:03:00,
2013-04-24 00:12:00,49.0,49.0,29.85,SW,225,4.0,10.0,100,0.00,,,0.76,,2013-04-24 04:12:00,
2013-04-24 00:23:00,46.0,46.0,29.88,NNE,22,1.0,0.0,100,0.00,,,0.80,,2013-04-24 04:23:00,
2013-04-24 00:33:00,46.0,46.0,29.85,NW,315,1.0,3.0,100,0.00,,,0.84,,2013-04-24 04:33:00,
2013-04-24 00:43:00,46.0,46.0,29.85,NW,315,1.0,3.0,100,0.00,,,0.84,,2013-04-24 04:43:00,
2013-04-24 00:53:00,46.0,46.0,29.87,NW,315,2.0,4.0,100,0.00,,,0.88,,2013-04-24 04:53:00,
2013-04-24 01:02:00,45.0,45.0,29.87,NNW,337,1.0,3.0,100,0.00,,,0.90,,2013-04-24 05:02:00,
2013-04-24 01:12:00,45.0,45.0,29.87,NNW,337,1.0,3.0,100,0.00,,,0.90,,2013-04-24 05:12:00,
2013-04-24 01:22:00,45.0,45.0,29.85,NNE,22,1.0,5.0,100,0.00,,,0.93,,2013-04-24 05:22:00,
2013-04-24 01:32:00,45.0,45.0,29.85,North,360,0.0,0.0,100,0.00,,,0.93,,2013-04-24 05:32:00,
2013-04-24 01:42:00,45.0,45.0,29.85,North,360,0.0,0.0,100,0.00,,,0.93,,2013-04-24 05:42:00,
2013-04-24 01:52:00,45.0,45.0,29.85,NW,315,1.0,4.0,100,0.00,,,0.94,,2013-04-24 05:52:00,
2013-04-24 02:02:00,45.0,45.0,29.84,West,270,3.0,4.0,100,0.00,,,0.94,,2013-04-24 06:02:00,
2013-04-24 02:12:00,45.0,45.0,29.84,West,270,3.0,4.0,100,0.00,,,0.94,,2013-04-24 06:12:00,
2013-04-24 02:22:00,45.0,45.0,29.85,WNW,292,2.0,5.0,100,0.00,,,0.94,,2013-04-24 06:22:00,
2013-04-24 02:33:00,45.0,45.0,29.85,WNW,292,2.0,4.0,100,0.00,,,0.95,,2013-04-24 06:33:00,
2013-04-24 02:42:00,45.0,45.0,29.85,WNW,292,2.0,4.0,100,0.00,,,0.95,,2013-04-24 06:42:00,
2013-04-24 02:52:00,44.0,44.0,29.83,NNW,337,3.0,7.0,100,0.00,,,0.96,,2013-04-24 06:52:00,
2013-04-24 03:02:00,44.0,44.0,29.83,West,270,2.0,7.0,100,0.00,,,0.97,,2013-04-24 07:02:00,
2013-04-24 03:11:00,44.0,44.0,29.83,West,270,2.0,7.0,100,0.00,,,0.97,,2013-04-24 07:11:00,
2013-04-24 03:22:00,44.0,44.0,29.83,North,360,1.0,3.0,100,0.00,,,0.97,,2013-04-24 07:22:00,
2013-04-24 03:32:00,44.0,44.0,29.85,North,360,1.0,5.0,100,0.00,,,0.98,,2013-04-24 07:32:00,
2013-04-24 03:42:00,44.0,44.0,29.85,North,360,1.0,5.0,100,0.00,,,0.98,,2013-04-24 07:42:00,
2013-04-24 03:52:00,44.0,44.0,29.85,NW,315,4.0,5.0,100,0.00,,,0.99,,2013-04-24 07:52:00,
2013-04-24 04:02:00,44.0,44.0,29.85,WNW,292,1.0,7.0,100,0.00,,,1.00,,2013-04-24 08:02:00,
2013-04-24 04:12:00,44.0,44.0,29.85,WNW,292,1.0,7.0,100,0.00,,,1.00,,2013-04-24 08:12:00,
2013-04-24 04:21:00,44.0,44.0,29.84,NNW,337,1.0,3.0,100,0.00,,,1.01,,2013-04-24 08:21:00,
2013-04-24 04:33:00,43.0,43.0,29.85,NNW,337,3.0,9.0,100,0.00,,,1.02,,2013-04-24 08:33:00,
2013-04-24 04:42:00,43.0,43.0,29.85,NNW,337,3.0,9.0,100,0.00,,,1.02,,2013-04-24 08:42:00,
2013-04-24 04:52:00,43.0,43.0,29.85,NW,315,4.0,6.0,100,0.00,,,1.02,,2013-04-24 08:52:00,
2013-04-24 05:02:00,42.0,42.0,29.85,NW,315,3.0,12.0,100,0.00,,,1.02,,2013-04-24 09:02:00,
2013-04-24 05:11:00,42.0,42.0,29.85,NW,315,3.0,12.0,100,0.00,,,1.02,,2013-04-24 09:11:00,
2013-04-24 05:21:00,42.0,42.0,29.85,NNW,337,2.0,5.0,100,0.00,,,1.03,,2013-04-24 09:21:00,
2013-04-24 05:33:00,42.0,42.0,29.87,NW,315,1.0,6.0,100,0.00,,,1.03,,2013-04-24 09:33:00,
2013-04-24 05:42:00,42.0,42.0,29.87,NW,315,1.0,6.0,100,0.00,,,1.03,,2013-04-24 09:42:00,
2013-04-24 05:53:00,42.0,42.0,29.87,West,270,3.0,7.0,100,0.00,,,1.03,,2013-04-24 09:53:00,
2013-04-24 06:02:00,41.0,41.0,29.89,NNW,337,3.0,8.0,100,0.00,,,1.04,,2013-04-24 10:02:00,
2013-04-24 06:12:00,41.0,41.0,29.89,NNW,337,3.0,8.0,100,0.00,,,1.04,,2013-04-24 10:12:00,
2013-04-24 06:22:00,41.0,41.0,29.88,NW,315,3.0,9.0,100,0.00,,,1.04,,2013-04-24 10:22:00,
2013-04-24 06:32:00,40.0,40.0,29.87,NNW,337,2.0,6.0,100,0.00,,,1.04,,2013-04-24 10:32:00,
2013-04-24 06:42:00,40.0,40.0,29.87,NNW,337,2.0,6.0,100,0.00,,,1.04,,2013-04-24 10:42:00,
2013-04-24 06:53:00,40.0,40.0,29.91,NNW,337,2.0,7.0,100,0.00,,,1.04,,2013-04-24 10:53:00,
2013-04-24 07:02:00,39.0,39.0,29.89,NNW,337,2.0,7.0,100,0.00,,,1.04,,2013-04-24 11:02:00,
2013-04-24 07:11:00,39.0,39.0,29.91,NNW,337,3.0,10.0,100,0.00,,,1.04,,2013-04-24 11:11:00,
2013-04-24 07:21:00,39.0,39.0,29.91,NNW,337,3.0,10.0,100,0.00,,,1.04,,2013-04-24 11:21:00,
2013-04-24 07:32:00,38.0,38.0,29.93,NW,315,2.0,8.0,100,0.00,,,1.04,,2013-04-24 11:32:00,
2013-04-24 07:42:00,38.0,38.0,29.93,NW,315,2.0,8.0,100,0.00,,,1.04,,2013-04-24 11:42:00,
2013-04-24 07:52:00,38.0,38.0,29.91,NNW,337,2.0,10.0,100,0.00,,,1.04,,2013-04-24 11:52:00,
2013-04-24 08:02:00,37.0,37.0,29.92,NW,315,2.0,9.0,100,0.00,,,1.04,,2013-04-24 12:02:00,
2013-04-24 08:11:00,36.0,36.0,29.93,North,360,2.0,10.0,100,0.00,,,1.04,,2013-04-24 12:11:00,
2013-04-24 08:22:00,36.0,36.0,29.93,North,360,2.0,10.0,100,0.00,,,1.04,,2013-04-24 12:22:00,
2013-04-24 08:32:00,36.0,36.0,29.94,NW,315,3.0,8.0,100,0.00,,,1.05,,2013-04-24 12:32:00,
2013-04-24 08:42:00,36.0,36.0,29.94,NW,315,3.0,8.0,100,0.00,,,1.05,,2013-04-24 12:42:00,
2013-04-24 08:52:00,36.0,36.0,29.95,WNW,292,0.0,5.0,100,0.00,,,1.05,,2013-04-24 12:52:00,
2013-04-24 09:01:00,36.0,36.0,29.94,NNW,337,1.0,3.0,100,0.00,,,1.05,,2013-04-24 13:01:00,
2013-04-24 09:12:00,36.0,36.0,29.94,NNW,337,1.0,3.0,100,0.00,,,1.05,,2013-04-24 13:12:00,
2013-04-24 09:22:00,36.0,36.0,29.94,North,360,3.0,8.0,100,0.00,,,1.05,,2013-04-24 13:22:00,
2013-04-24 09:32:00,36.0,36.0,29.96,WNW,292,1.0,7.0,100,0.00,,,1.06,,2013-04-24 13:32:00,
2013-04-24 09:41:00,36.0,36.0,29.96,WNW,292,1.0,7.0,100,0.00,,,1.06,,2013-04-24 13:41:00,
2013-04-24 09:52:00,36.0,36.0,29.93,NW,315,3.0,9.0,100,0.00,,,1.06,,2013-04-24 13:52:00,
2013-04-24 10:01:00,35.0,35.0,29.94,WNW,292,3.0,6.0,100,0.00,,,1.06,,2013-04-24 14:01:00,
2013-04-24 10:11:00,35.0,35.0,29.94,WNW,292,3.0,6.0,100,0.00,,,1.06,,2013-04-24 14:11:00,
2013-04-24 10:21:00,35.0,35.0,29.94,NNE,22,2.0,10.0,100,0.00,,,1.06,,2013-04-24 14:21:00,
2013-04-24 10:32:00,35.0,35.0,29.95,NNW,337,2.0,6.0,100,0.00,,,1.07,,2013-04-24 14:32:00,
2013-04-24 10:41:00,35.0,35.0,29.95,NNW,337,2.0,6.0,100,0.00,,,1.07,,2013-04-24 14:41:00,
2013-04-24 10:51:00,35.0,35.0,29.95,NW,315,2.0,9.0,100,0.00,,,1.07,,2013-04-24 14:51:00,
2013-04-24 11:01:00,35.0,35.0,29.97,NW,315,1.0,2.0,100,0.00,,,1.07,,2013-04-24 15:01:00,
2013-04-24 11:11:00,35.0,35.0,29.97,NW,315,1.0,2.0,100,0.00,,,1.07,,2013-04-24 15:11:00,
2013-04-24 11:22:00,35.0,35.0,29.97,NW,315,1.0,7.0,100,0.00,,,1.07,,2013-04-24 15:22:00,
2013-04-24 11:33:00,35.0,35.0,29.98,NW,315,3.0,6.0,100,0.00,,,1.07,,2013-04-24 15:33:00,
2013-04-24 11:43:00,35.0,35.0,29.98,NW,315,3.0,6.0,100,0.00,,,1.07,,2013-04-24 15:43:00,
2013-04-24 11:53:00,35.0,35.0,29.98,NNW,337,3.0,4.0,100,0.00,,,1.08,,2013-04-24 15:53:00,
2013-04-24 12:03:00,35.0,35.0,29.98,NNW,337,4.0,10.0,100,0.00,,,1.09,,2013-04-24 16:03:00,
2013-04-24 12:12:00,35.0,35.0,29.98,NNW,337,4.0,10.0,100,0.00,,,1.09,,2013-04-24 16:12:00,
2013-04-24 12:23:00,34.0,34.0,29.98,WNW,292,2.0,5.0,100,0.00,,,1.10,,2013-04-24 16:23:00,
2013-04-24 12:32:00,34.0,34.0,30.00,WNW,292,5.0,14.0,100,0.00,,,1.11,,2013-04-24 16:32:00,
2013-04-24 12:42:00,35.0,35.0,30.00,NW,315,5.0,7.0,100,0.00,,,1.11,,2013-04-24 16:42:00,
2013-04-24 12:53:00,35.0,35.0,30.00,NW,315,5.0,7.0,100,0.00,,,1.11,,2013-04-24 16:53:00,
2013-04-24 13:02:00,35.0,35.0,30.00,WNW,292,6.0,12.0,100,0.00,,,1.12,,2013-04-24 17:02:00,
2013-04-24 13:12:00,35.0,35.0,30.00,WNW,292,6.0,12.0,100,0.00,,,1.12,,2013-04-24 17:12:00,
2013-04-24 13:22:00,35.0,35.0,30.01,West,270,4.0,10.0,100,0.00,,,1.12,,2013-04-24 17:22:00,
2013-04-24 13:32:00,35.0,35.0,30.01,WNW,292,4.0,10.0,100,0.00,,,1.13,,2013-04-24 17:32:00,
2013-04-24 13:42:00,35.0,35.0,30.01,WNW,292,4.0,10.0,100,0.00,,,1.13,,2013-04-24 17:42:00,
2013-04-24 13:52:00,35.0,35.0,30.00,North,360,3.0,8.0,100,0.00,,,1.13,,2013-04-24 17:52:00,
2013-04-24 14:02:00,36.0,36.0,30.02,West,270,6.0,11.0,100,0.00,,,1.13,,2013-04-24 18:02:00,
2013-04-24 14:12:00,36.0,36.0,30.02,West,270,6.0,11.0,100,0.00,,,1.13,,2013-04-24 18:12:00,
2013-04-24 14:22:00,36.0,36.0,30.02,NW,315,5.0,10.0,100,0.00,,,1.13,,2013-04-24 18:22:00,
2013-04-24 14:33:00,36.0,36.0,30.03,WNW,292,7.0,11.0,100,0.00,,,1.13,,2013-04-24 18:33:00,
2013-04-24 14:42:00,36.0,36.0,30.03,WNW,292,7.0,11.0,100,0.00,,,1.13,,2013-04-24 18:42:00,
2013-04-24 14:52:00,36.0,36.0,30.06,West,270,6.0,11.0,100,0.00,,,1.14,,2013-04-24 18:52:00,
2013-04-24 15:02:00,37.0,37.0,30.05,NNW,337,6.0,8.0,100,0.00,,,1.14,,2013-04-24 19:02:00,
2013-04-24 15:11:00,37.0,37.0,30.05,NNW,337,6.0,8.0,100,0.00,,,1.14,,2013-04-24 19:11:00,
2013-04-24 15:22:00,37.0,37.0,30.03,NW,315,7.0,11.0,100,0.00,,,1.14,,2013-04-24 19:22:00,
2013-04-24 15:32:00,38.0,38.0,30.05,SW,225,8.0,12.0,100,0.00,,,1.14,,2013-04-24 19:32:00,
2013-04-24 15:42:00,38.0,38.0,30.05,SW,225,8.0,12.0,100,0.00,,,1.14,,2013-04-24 19:42:00,
2013-04-24 15:52:00,39.0,39.0,30.05,West,270,7.0,11.0,100,0.00,,,1.14,,2013-04-24 19:52:00,
2013-04-24 16:02:00,40.0,40.0,30.05,WSW,247,8.0,12.0,99,0.00,,,1.14,,2013-04-24 20:02:00,
2013-04-24 16:11:00,40.0,40.0,30.05,WSW,247,8.0,12.0,99,0.00,,,1.14,,2013-04-24 20:11:00,
2013-04-24 16:22:00,40.0,37.0,30.05,NW,315,9.0,16.0,90,0.00,,,1.14,,2013-04-24 20:22:00,
2013-04-24 16:32:00,40.0,37.0,30.05,West,270,8.0,10.0,88,0.00,,,1.14,,2013-04-24 20:32:00,
2013-04-24 16:42:00,40.0,37.0,30.05,West,270,8.0,10.0,88,0.00,,,1.14,,2013-04-24 20:42:00,
2013-04-24 16:52:00,41.0,35.0,30.07,WSW,247,8.0,15.0,80,0.00,,,1.14,,2013-04-24 20:52:00,
2013-04-24 17:02:00,41.0,35.0,30.08,WSW,247,9.0,17.0,78,0.00,,,1.12,,2013-04-24 21:02:00,
2013-04-24 17:11:00,41.0,35.0,30.08,WSW,247,9.0,17.0,78,0.00,,,1.12,,2013-04-24 21:11:00,
2013-04-24 17:22:00,41.0,33.0,30.07,WSW,247,7.0,15.0,74,0.00,,,1.10,,2013-04-24 21:22:00,
2013-04-24 17:33:00,41.0,32.0,30.06,WNW,292,10.0,14.0,70,0.00,,,1.07,,2013-04-24 21:33:00,
2013-04-24 17:42:00,41.0,32.0,30.06,WNW,292,10.0,14.0,70,0.00,,,1.07,,2013-04-24 21:42:00,
2013-04-24 17:53:00,42.0,31.0,30.07,WNW,292,7.0,15.0,66,0.00,,,1.06,,2013-04-24 21:53:00,
2013-04-24 18:03:00,43.0,32.0,30.07,WNW,292,9.0,11.0,65,0.00,,,1.04,,2013-04-24 22:03:00,
2013-04-24 18:12:00,43.0,32.0,30.07,WNW,292,9.0,11.0,65,0.00,,,1.04,,2013-04-24 22:12:00,
2013-04-24 18:22:00,41.0,31.0,30.10,WNW,292,8.0,14.0,66,0.00,,,1.04,,2013-04-24 22:22:00,
2013-04-24 18:33:00,41.0,32.0,30.11,NW,315,4.0,10.0,69,0.00,,,1.03,,2013-04-24 22:33:00,
2013-04-24 18:42:00,41.0,32.0,30.11,NW,315,4.0,10.0,69,0.00,,,1.03,,2013-04-24 22:42:00,
2013-04-24 18:52:00,42.0,31.0,30.13,West,270,7.0,11.0,65,0.00,,,1.03,,2013-04-24 22:52:00,
2013-04-24 19:02:00,42.0,30.0,30.12,WNW,292,7.0,14.0,62,0.00,,,1.03,,2013-04-24 23:02:00,
2013-04-24 19:12:00,42.0,30.0,30.12,WNW,292,7.0,14.0,62,0.00,,,1.03,,2013-04-24 23:12:00,
2013-04-24 19:21:00,42.0,27.0,30.12,WSW,247,7.0,13.0,56,0.00,,,1.03,,2013-04-24 23:21:00,
2013-04-24 19:32:00,42.0,29.0,30.13,WNW,292,6.0,8.0,59,0.00,,,1.03,,2013-04-24 23:32:00,
2013-04-24 19:42:00,42.0,29.0,30.13,WNW,292,6.0,8.0,59,0.00,,,1.03,,2013-04-24 23:42:00,
2013-04-24 19:52:00,41.0,27.0,30.13,NW,315,6.0,12.0,56,0.00,,,1.01,,2013-04-24 23:52:00,
2013-04-24 20:02:00,41.0,27.0,30.14,WNW,292,7.0,8.0,57,0.00,,,1.00,,2013-04-25 00:02:00,
2013-04-24 20:12:00,41.0,27.0,30.14,WNW,292,7.0,8.0,57,0.00,,,1.00,,2013-04-25 00:12:00,
2013-04-24 20:22:00,40.0,26.0,30.15,WNW,292,3.0,9.0,56,0.00,,,0.96,,2013-04-25 00:22:00,
2013-04-24 20:32:00,40.0,26.0,30.16,WSW,247,4.0,6.0,56,0.00,,,0.92,,2013-04-25 00:32:00,
2013-04-24 20:42:00,40.0,26.0,30.16,WSW,247,4.0,6.0,56,0.00,,,0.92,,2013-04-25 00:42:00,
2013-04-24 20:52:00,39.0,26.0,30.16,WSW,247,1.0,2.0,59,0.00,,,0.88,,2013-04-25 00:52:00,
2013-04-24 21:01:00,38.0,26.0,30.19,West,270,0.0,1.0,61,0.00,,,0.80,,2013-04-25 01:01:00,
2013-04-24 21:11:00,38.0,26.0,30.19,West,270,0.0,1.0,61,0.00,,,0.80,,2013-04-25 01:11:00,
2013-04-24 21:23:00,37.0,26.0,30.21,West,270,0.0,0.0,63,0.00,,,0.79,,2013-04-25 01:23:00,
2013-04-24 21:32:00,36.0,26.0,30.21,West,270,0.0,0.0,67,0.00,,,0.78,,2013-04-25 01:32:00,
2013-04-24 21:42:00,36.0,26.0,30.21,West,270,0.0,0.0,67,0.00,,,0.78,,2013-04-25 01:42:00,
2013-04-24 21:52:00,35.0,26.0,30.21,WSW,247,0.0,0.0,69,0.00,,,0.72,,2013-04-25 01:52:00,
2013-04-24 22:02:00,35.0,27.0,30.23,WSW,247,0.0,0.0,72,0.00,,,0.68,,2013-04-25 02:02:00,
2013-04-24 22:11:00,35.0,27.0,30.23,WSW,247,0.0,0.0,72,0.00,,,0.68,,2013-04-25 02:11:00,
2013-04-24 22:22:00,34.0,27.0,30.23,WSW,247,0.0,0.0,75,0.00,,,0.67,,2013-04-25 02:22:00,
2013-04-24 22:32:00,34.0,28.0,30.24,WSW,247,0.0,0.0,77,0.00,,,0.66,,2013-04-25 02:32:00,
2013-04-24 22:42:00,34.0,28.0,30.24,WSW,247,0.0,0.0,77,0.00,,,0.66,,2013-04-25 02:42:00,
2013-04-24 22:52:00,34.0,28.0,30.24,WSW,247,0.0,0.0,77,0.00,,,0.66,,2013-04-25 02:52:00,
2013-04-24 23:02:00,34.0,29.0,30.25,WSW,247,0.0,0.0,82,0.00,,,0.64,,2013-04-25 03:02:00,
2013-04-24 23:11:00,33.0,30.0,30.25,WSW,247,0.0,0.0,87,0.00,,,0.63,,2013-04-25 03:11:00,
2013-04-24 23:22:00,33.0,30.0,30.25,WSW,247,0.0,0.0,87,0.00,,,0.63,,2013-04-25 03:22:00,
2013-04-24 23:33:00,33.0,30.0,30.25,WSW,247,0.0,0.0,89,0.00,,,0.53,,2013-04-25 03:33:00,
2013-04-24 23:42:00,33.0,30.0,30.25,WSW,247,0.0,0.0,89,0.00,,,0.53,,2013-04-25 03:42:00,
2013-04-24 23:52:00,33.0,31.0,30.25,WSW,247,0.0,0.0,92,0.00,,,0.41,,2013-04-25 03:52:00,